Location: ??
(35.5653°N, 139.6194°E)
Time: 15:25:12
(UTC+00:00)

CZ-2C R/B - Pass Details

Date: 20 November 2019
Orbit: 667 x 785 km, 98.1° (Epoch: 13 December)

Event Time Altitude Azimuth Distance (km) Brightness Sun altitude
Rises 18:55:24 0° 14° (NNE) 3,121 5.8 -29.7°
Reaches altitude 10° 18:57:43 10° 15° (NNE) 2,180 4.9 -29.2°
Enters shadow 18:59:22 22° 18° (NNE) 1,530 4.1 -28.9°
